| time (UTC) | temp C | wind direction | speed KPH | gust KPH | rain 1hr cm | rain 24hr cm | rain mn cm | humidity % | barometer mb |
| 20260508093004 | 22 | 253 | 0.0 | 0.0 | 0.00 | 0.00 | 0.00 | 19 | 1021.6 |
| 20260508092503 | 22 | 259 | 0.0 | 0.0 | 0.00 | 0.00 | 0.00 | 19 | 1021.7 |
| 20260508092004 | 22 | 264 | 0.0 | 0.0 | 0.00 | 0.00 | 0.00 | 20 | 1021.7 |
| 20260508091504 | 22 | 274 | 0.0 | 0.0 | 0.00 | 0.00 | 0.00 | 20 | 1021.7 |
| 20260508091004 | 22 | 259 | 0.0 | 0.0 | 0.00 | 0.00 | 0.00 | 20 | 1021.7 |
| 20260508090504 | 22 | 262 | 0.0 | 0.0 | 0.00 | 0.00 | 0.00 | 21 | 1021.8 |
| 20260508085504 | 22 | 257 | 0.0 | 0.0 | 0.00 | 0.00 | 0.00 | 21 | 1021.9 |
| 20260508085005 | 22 | 243 | 0.0 | 0.0 | 0.00 | 0.00 | 0.00 | 20 | 1022.0 |
| 20260508084004 | 23 | 298 | 0.0 | 0.0 | 0.00 | 0.00 | 0.00 | 20 | 1022.1 |
| 20260508083504 | 22 | 323 | 0.0 | 0.0 | 0.00 | 0.00 | 0.00 | 21 | 1022.1 |
| 20260508083003 | 22 | 275 | 0.0 | 0.0 | 0.00 | 0.00 | 0.00 | 21 | 1022.1 |
| 20260508082504 | 23 | 283 | 0.0 | 0.0 | 0.00 | 0.00 | 0.00 | 21 | 1022.0 |
| 20260508081504 | 22 | 306 | 0.0 | 0.0 | 0.00 | 0.00 | 0.00 | 22 | 1022.1 |
| 20260508081003 | 22 | 302 | 0.0 | 3.2 | 0.00 | 0.00 | 0.00 | 22 | 1022.1 |
| 20260508080504 | 23 | 238 | 0.0 | 0.0 | 0.00 | 0.00 | 0.00 | 22 | 1022.1 |
| 20260508080004 | 23 | 237 | 0.0 | 0.0 | 0.00 | 0.00 | 0.00 | 22 | 1022.2 |
| 20260508075505 | 23 | 232 | 0.0 | 0.0 | 0.00 | 0.00 | 0.00 | 22 | 1022.2 |
| 20260508075003 | 23 | 271 | 0.0 | 0.0 | 0.00 | 0.00 | 0.00 | 21 | 1022.3 |
| 20260508074503 | 23 | 295 | 0.0 | 0.0 | 0.00 | 0.00 | 0.00 | 22 | 1022.2 |
| 20260508074004 | 23 | 300 | 0.0 | 0.0 | 0.00 | 0.00 | 0.00 | 22 | 1022.3 |
| 20260508073504 | 22 | 277 | 0.0 | 0.0 | 0.00 | 0.00 | 0.00 | 23 | 1022.3 |
| 20260508073004 | 23 | 321 | 0.0 | 0.0 | 0.00 | 0.00 | 0.00 | 23 | 1022.3 |
| 20260508072503 | 22 | 284 | 0.0 | 0.0 | 0.00 | 0.00 | 0.00 | 23 | 1022.3 |
| 20260508072004 | 23 | 259 | 0.0 | 0.0 | 0.00 | 0.00 | 0.00 | 23 | 1022.3 |
| 20260508071504 | 23 | 175 | 0.0 | 0.0 | 0.00 | 0.00 | 0.00 | 23 | 1022.2 |
| 20260508071004 | 23 | 238 | 0.0 | 0.0 | 0.00 | 0.00 | 0.00 | 23 | 1022.2 |
| 20260508070504 | 24 | 281 | 0.0 | 0.0 | 0.00 | 0.00 | 0.00 | 23 | 1022.2 |
| 20260508070004 | 24 | 282 | 0.0 | 0.0 | 0.00 | 0.00 | 0.00 | 23 | 1022.1 |
| 20260508065504 | 24 | 277 | 0.0 | 0.0 | 0.00 | 0.00 | 0.00 | 23 | 1022.1 |
| 20260508065003 | 24 | 288 | 0.0 | 0.0 | 0.00 | 0.00 | 0.00 | 23 | 1022.2 |
| 20260508064504 | 24 | 287 | 0.0 | 0.0 | 0.00 | 0.00 | 0.00 | 23 | 1022.3 |
| 20260508064004 | 24 | 289 | 0.0 | 0.0 | 0.00 | 0.00 | 0.00 | 23 | 1022.3 |
| 20260508063503 | 24 | 288 | 0.0 | 0.0 | 0.00 | 0.00 | 0.00 | 24 | 1022.3 |
| 20260508063004 | 24 | 292 | 0.0 | 0.0 | 0.00 | 0.00 | 0.00 | 24 | 1022.4 |
| 20260508062504 | 24 | 295 | 0.0 | 0.0 | 0.00 | 0.00 | 0.00 | 24 | 1022.2 |
| 20260508061503 | 24 | 294 | 0.0 | 0.0 | 0.00 | 0.00 | 0.00 | 24 | 1022.2 |
| 20260508061003 | 24 | 284 | 0.0 | 0.0 | 0.00 | 0.00 | 0.00 | 24 | 1022.2 |
| 20260508060504 | 24 | 295 | 0.0 | 0.0 | 0.00 | 0.00 | 0.00 | 25 | 1022.1 |
| 20260508060003 | 24 | 294 | 0.0 | 0.0 | 0.00 | 0.00 | 0.00 | 25 | 1022.2 |
| 20260508055504 | 25 | 289 | 0.0 | 0.0 | 0.00 | 0.00 | 0.00 | 25 | 1022.3 |
| 20260508054505 | 25 | 290 | 0.0 | 0.0 | 0.00 | 0.00 | 0.00 | 25 | 1022.2 |
| 20260508053504 | 25 | 304 | 0.0 | 0.0 | 0.00 | 0.00 | 0.00 | 25 | 1022.2 |
| 20260508053004 | 25 | 296 | 0.0 | 0.0 | 0.00 | 0.00 | 0.00 | 25 | 1022.3 |
| 20260508052004 | 25 | 290 | 0.0 | 0.0 | 0.00 | 0.00 | 0.00 | 25 | 1022.4 |
| 20260508051504 | 25 | 296 | 0.0 | 0.0 | 0.00 | 0.00 | 0.00 | 25 | 1022.4 |
| 20260508051004 | 25 | 300 | 0.0 | 0.0 | 0.00 | 0.00 | 0.00 | 25 | 1022.4 |
| 20260508050504 | 25 | 302 | 0.0 | 0.0 | 0.00 | 0.00 | 0.00 | 25 | 1022.4 |
| 20260508045504 | 25 | 303 | 0.0 | 0.0 | 0.00 | 0.00 | 0.00 | 25 | 1022.3 |
| 20260508045005 | 25 | 306 | 0.0 | 0.0 | 0.00 | 0.00 | 0.00 | 25 | 1022.3 |
| 20260508044504 | 25 | 323 | 0.0 | 0.0 | 0.00 | 0.00 | 0.00 | 24 | 1022.3 |
| 20260508044004 | 25 | 300 | 0.0 | 0.0 | 0.00 | 0.00 | 0.00 | 24 | 1022.2 |
| 20260508043003 | 25 | 290 | 0.0 | 0.0 | 0.00 | 0.00 | 0.00 | 24 | 1022.1 |
| 20260508042503 | 25 | 294 | 0.0 | 0.0 | 0.00 | 0.00 | 0.00 | 24 | 1022.1 |
| 20260508042004 | 25 | 289 | 0.0 | 0.0 | 0.00 | 0.00 | 0.00 | 23 | 1022.1 |
| 20260508041505 | 25 | 292 | 0.0 | 0.0 | 0.00 | 0.00 | 0.00 | 22 | 1022.0 |
| 20260508041004 | 25 | 284 | 0.0 | 0.0 | 0.00 | 0.00 | 0.00 | 21 | 1022.0 |
| 20260508040503 | 25 | 298 | 0.0 | 0.0 | 0.00 | 0.00 | 0.00 | 21 | 1021.9 |
| 20260508035504 | 25 | 282 | 0.0 | 0.0 | 0.00 | 0.00 | 0.00 | 21 | 1021.9 |
| 20260508035004 | 25 | 284 | 0.0 | 0.0 | 0.00 | 0.00 | 0.00 | 21 | 1021.9 |
| 20260508034504 | 26 | 281 | 0.0 | 0.0 | 0.00 | 0.00 | 0.00 | 22 | 1021.9 |
| 20260508034004 | 26 | 288 | 0.0 | 0.0 | 0.00 | 0.00 | 0.00 | 22 | 1021.9 |
| 20260508033504 | 26 | 288 | 0.0 | 0.0 | 0.00 | 0.00 | 0.00 | 22 | 1021.9 |
| 20260508033005 | 25 | 287 | 0.0 | 0.0 | 0.00 | 0.00 | 0.00 | 23 | 1021.9 |
| 20260508032504 | 25 | 262 | 0.0 | 0.0 | 0.00 | 0.00 | 0.00 | 22 | 1021.6 |
| 20260508032004 | 25 | 244 | 0.0 | 0.0 | 0.00 | 0.00 | 0.00 | 22 | 1021.6 |
| 20260508031003 | 25 | 247 | 0.0 | 0.0 | 0.00 | 0.00 | 0.00 | 21 | 1021.4 |
| 20260508030504 | 25 | 247 | 0.0 | 0.0 | 0.00 | 0.00 | 0.00 | 21 | 1021.3 |
| 20260508030004 | 25 | 218 | 0.0 | 0.0 | 0.00 | 0.00 | 0.00 | 21 | 1021.2 |
| 20260508025504 | 25 | 242 | 0.0 | 0.0 | 0.00 | 0.00 | 0.00 | 21 | 1021.3 |
| 20260508025004 | 26 | 240 | 0.0 | 0.0 | 0.00 | 0.00 | 0.00 | 20 | 1021.2 |
| 20260508024505 | 26 | 239 | 0.0 | 0.0 | 0.00 | 0.00 | 0.00 | 20 | 1021.2 |
| 20260508024004 | 26 | 206 | 0.0 | 0.0 | 0.00 | 0.00 | 0.00 | 19 | 1021.2 |
| 20260508023504 | 27 | 255 | 0.0 | 0.0 | 0.00 | 0.00 | 0.00 | 18 | 1021.0 |
| 20260508023004 | 28 | 201 | 0.0 | 0.0 | 0.00 | 0.00 | 0.00 | 17 | 1021.0 |
| 20260508022004 | 29 | 295 | 0.0 | 14.5 | 0.00 | 0.00 | 0.00 | 13 | 1021.0 |
| 20260508021504 | 29 | 315 | 0.0 | 4.8 | 0.00 | 0.00 | 0.00 | 13 | 1020.9 |
| 20260508021004 | 29 | 320 | 0.0 | 4.8 | 0.00 | 0.00 | 0.00 | 13 | 1020.9 |
| 20260508020504 | 29 | 327 | 4.8 | 12.9 | 0.00 | 0.00 | 0.00 | 12 | 1020.8 |
| 20260508020004 | 30 | 338 | 9.7 | 16.1 | 0.00 | 0.00 | 0.00 | 12 | 1020.8 |
| 20260508015504 | 30 | 353 | 8.0 | 16.1 | 0.00 | 0.00 | 0.00 | 12 | 1020.8 |
| 20260508015004 | 30 | 334 | 8.0 | 14.5 | 0.00 | 0.00 | 0.00 | 12 | 1020.8 |
| 20260508014505 | 30 | 322 | 8.0 | 16.1 | 0.00 | 0.00 | 0.00 | 12 | 1020.8 |
| 20260508014004 | 30 | 331 | 9.7 | 14.5 | 0.00 | 0.00 | 0.00 | 12 | 1020.8 |
| 20260508013504 | 30 | 329 | 9.7 | 16.1 | 0.00 | 0.00 | 0.00 | 12 | 1020.7 |
| 20260508013004 | 30 | 316 | 9.7 | 19.3 | 0.00 | 0.00 | 0.00 | 12 | 1020.8 |
| 20260508012504 | 30 | 319 | 9.7 | 14.5 | 0.00 | 0.00 | 0.00 | 12 | 1020.8 |
| 20260508012004 | 30 | 307 | 8.0 | 12.9 | 0.00 | 0.00 | 0.00 | 13 | 1020.8 |
| 20260508011504 | 30 | 318 | 6.4 | 14.5 | 0.00 | 0.00 | 0.00 | 13 | 1020.9 |
| 20260508010005 | 31 | 345 | 16.1 | 22.5 | 0.00 | 0.00 | 0.00 | 13 | 1020.8 |
| 20260508005504 | 31 | 318 | 11.3 | 19.3 | 0.00 | 0.00 | 0.00 | 13 | 1020.9 |
| 20260508005004 | 31 | 3 | 9.7 | 19.3 | 0.00 | 0.00 | 0.00 | 13 | 1021.0 |
| 20260508004504 | 31 | 7 | 4.8 | 14.5 | 0.00 | 0.00 | 0.00 | 13 | 1021.0 |
| 20260508004003 | 31 | 13 | 9.7 | 20.9 | 0.00 | 0.00 | 0.00 | 13 | 1021.0 |
| 20260508003503 | 31 | 7 | 9.7 | 19.3 | 0.00 | 0.00 | 0.00 | 13 | 1021.0 |
| 20260508003005 | 31 | 351 | 11.3 | 20.9 | 0.00 | 0.00 | 0.00 | 13 | 1021.1 |
| 20260508002004 | 31 | 336 | 6.4 | 12.9 | 0.00 | 0.00 | 0.00 | 13 | 1020.9 |
| 20260508001505 | 31 | 349 | 11.3 | 19.3 | 0.00 | 0.00 | 0.00 | 13 | 1021.0 |
| 20260508000505 | 31 | 0 | 11.3 | 20.9 | 0.00 | 0.00 | 0.00 | 14 | 1021.0 |
| 20260508000004 | 31 | 35 | 8.0 | 16.1 | 0.00 | 0.00 | 0.00 | 14 | 1021.0 |
| 20260507235504 | 31 | 56 | 9.7 | 19.3 | 0.00 | 0.00 | 0.00 | 14 | 1021.0 |
| 20260507235004 | 31 | 29 | 9.7 | 19.3 | 0.00 | 0.00 | 0.00 | 14 | 1021.1 |
| 20260507234504 | 31 | 224 | 1.6 | 4.8 | 0.00 | 0.00 | 0.00 | 14 | 1021.1 |
| 20260507234004 | 31 | 270 | 3.2 | 14.5 | 0.00 | 0.00 | 0.00 | 14 | 1021.1 |
| 20260507233004 | 31 | 327 | 9.7 | 19.3 | 0.00 | 0.00 | 0.00 | 14 | 1021.2 |
| 20260507232004 | 31 | 323 | 8.0 | 16.1 | 0.00 | 0.00 | 0.00 | 14 | 1021.2 |
| 20260507231004 | 31 | 324 | 9.7 | 29.0 | 0.00 | 0.00 | 0.00 | 14 | 1021.2 |
| 20260507230504 | 31 | 127 | 6.4 | 19.3 | 0.00 | 0.00 | 0.00 | 14 | 1021.4 |
| 20260507230004 | 31 | 339 | 14.5 | 19.3 | 0.00 | 0.00 | 0.00 | 14 | 1021.4 |
| 20260507225503 | 31 | 318 | 1.6 | 16.1 | 0.00 | 0.00 | 0.00 | 14 | 1021.4 |
| 20260507225003 | 31 | 294 | 12.9 | 20.9 | 0.00 | 0.00 | 0.00 | 14 | 1021.4 |
| 20260507224503 | 31 | 1 | 11.3 | 20.9 | 0.00 | 0.00 | 0.00 | 14 | 1021.5 |
| 20260507223503 | 31 | 318 | 8.0 | 19.3 | 0.00 | 0.00 | 0.00 | 14 | 1021.5 |
| 20260507223003 | 31 | 331 | 8.0 | 20.9 | 0.00 | 0.00 | 0.00 | 14 | 1021.7 |
| 20260507222503 | 31 | 61 | 4.8 | 11.3 | 0.00 | 0.00 | 0.00 | 14 | 1021.7 |
| 20260507222003 | 31 | 88 | 3.2 | 12.9 | 0.00 | 0.00 | 0.00 | 15 | 1021.7 |
| 20260507221503 | 31 | 17 | 8.0 | 19.3 | 0.00 | 0.00 | 0.00 | 14 | 1021.9 |
| 20260507221003 | 31 | 343 | 11.3 | 19.3 | 0.00 | 0.00 | 0.00 | 14 | 1022.0 |
| 20260507220503 | 31 | 18 | 9.7 | 16.1 | 0.00 | 0.00 | 0.00 | 14 | 1022.1 |
| 20260507220002 | 30 | 322 | 11.3 | 19.3 | 0.00 | 0.00 | 0.00 | 14 | 1022.1 |
| 20260507215502 | 31 | 342 | 14.5 | 20.9 | 0.00 | 0.00 | 0.00 | 13 | 1022.3 |
| 20260507215002 | 31 | 269 | 1.6 | 8.0 | 0.00 | 0.00 | 0.00 | 14 | 1022.3 |
| 20260507214502 | 30 | 84 | 0.0 | 4.8 | 0.00 | 0.00 | 0.00 | 14 | 1022.3 |
| 20260507214004 | 30 | 53 | 1.6 | 9.7 | 0.00 | 0.00 | 0.00 | 13 | 1022.7 |
| 20260507213503 | 30 | 27 | 9.7 | 19.3 | 0.00 | 0.00 | 0.00 | 13 | 1022.7 |
| 20260507212502 | 31 | 33 | 12.9 | 24.1 | 0.00 | 0.00 | 0.00 | 13 | 1022.6 |
| 20260507211503 | 31 | 74 | 3.2 | 12.9 | 0.00 | 0.00 | 0.00 | 13 | 1022.7 |
| 20260507210503 | 30 | 61 | 1.6 | 12.9 | 0.00 | 0.00 | 0.00 | 14 | 1023.0 |
| 20260507210003 | 30 | 335 | 6.4 | 14.5 | 0.00 | 0.00 | 0.00 | 13 | 1023.0 |
| 20260507205503 | 30 | 81 | 4.8 | 9.7 | 0.00 | 0.00 | 0.00 | 13 | 1023.0 |
| 20260507205003 | 30 | 89 | 6.4 | 20.9 | 0.00 | 0.00 | 0.00 | 13 | 1023.1 |
| 20260507204503 | 30 | 35 | 8.0 | 19.3 | 0.00 | 0.00 | 0.00 | 13 | 1023.1 |
| 20260507203503 | 30 | 339 | 8.0 | 16.1 | 0.00 | 0.00 | 0.00 | 13 | 1023.2 |
| 20260507203003 | 30 | 20 | 11.3 | 20.9 | 0.00 | 0.00 | 0.00 | 13 | 1023.2 |
| 20260507202503 | 30 | 22 | 9.7 | 20.9 | 0.00 | 0.00 | 0.00 | 13 | 1023.3 |
| 20260507202002 | 30 | 96 | 4.8 | 9.7 | 0.00 | 0.00 | 0.00 | 14 | 1023.4 |
| 20260507201003 | 30 | 316 | 4.8 | 16.1 | 0.00 | 0.00 | 0.00 | 14 | 1023.6 |
| 20260507200502 | 29 | 347 | 9.7 | 19.3 | 0.00 | 0.00 | 0.00 | 14 | 1023.7 |
| 20260507200003 | 30 | 41 | 8.0 | 19.3 | 0.00 | 0.00 | 0.00 | 15 | 1023.7 |
| 20260507195503 | 30 | 30 | 9.7 | 19.3 | 0.00 | 0.00 | 0.00 | 14 | 1023.8 |
| 20260507195003 | 30 | 80 | 8.0 | 14.5 | 0.00 | 0.00 | 0.00 | 14 | 1024.0 |
| 20260507194503 | 30 | 72 | 4.8 | 14.5 | 0.00 | 0.00 | 0.00 | 14 | 1024.0 |
| 20260507193503 | 30 | 97 | 4.8 | 14.5 | 0.00 | 0.00 | 0.00 | 15 | 1024.0 |
| 20260507193003 | 29 | 14 | 3.2 | 12.9 | 0.00 | 0.00 | 0.00 | 15 | 1024.1 |
| 20260507191003 | 28 | 44 | 4.8 | 16.1 | 0.00 | 0.00 | 0.00 | 15 | 1024.2 |
| 20260507190503 | 29 | 333 | 4.8 | 12.9 | 0.00 | 0.00 | 0.00 | 15 | 1024.4 |
| 20260507190004 | 28 | 75 | 3.2 | 14.5 | 0.00 | 0.00 | 0.00 | 15 | 1024.5 |
| 20260507185502 | 28 | 24 | 6.4 | 14.5 | 0.00 | 0.00 | 0.00 | 16 | 1024.5 |
| 20260507185003 | 28 | 34 | 3.2 | 12.9 | 0.00 | 0.00 | 0.00 | 17 | 1024.5 |
| 20260507184502 | 28 | 286 | 8.0 | 16.1 | 0.00 | 0.00 | 0.00 | 16 | 1024.5 |
| 20260507184002 | 28 | 344 | 6.4 | 16.1 | 0.00 | 0.00 | 0.00 | 17 | 1024.5 |
| 20260507183502 | 28 | 275 | 3.2 | 12.9 | 0.00 | 0.00 | 0.00 | 17 | 1024.5 |
| 20260507182503 | 28 | 14 | 9.7 | 19.3 | 0.00 | 0.00 | 0.00 | 17 | 1024.6 |
| 20260507182003 | 28 | 5 | 12.9 | 19.3 | 0.00 | 0.00 | 0.00 | 17 | 1024.6 |
| 20260507181503 | 28 | 52 | 4.8 | 12.9 | 0.00 | 0.00 | 0.00 | 18 | 1024.6 |
| 20260507181003 | 28 | 355 | 4.8 | 16.1 | 0.00 | 0.00 | 0.00 | 18 | 1024.6 |
| 20260507180503 | 28 | 31 | 8.0 | 19.3 | 0.00 | 0.00 | 0.00 | 18 | 1024.7 |
| 20260507180003 | 28 | 26 | 4.8 | 14.5 | 0.00 | 0.00 | 0.00 | 18 | 1024.6 |
| 20260507175503 | 27 | 51 | 6.4 | 22.5 | 0.00 | 0.00 | 0.00 | 18 | 1024.7 |
| 20260507175003 | 28 | 29 | 6.4 | 19.3 | 0.00 | 0.00 | 0.00 | 18 | 1024.8 |
| 20260507174503 | 28 | 16 | 11.3 | 19.3 | 0.00 | 0.00 | 0.00 | 18 | 1024.7 |
| 20260507174003 | 27 | 7 | 9.7 | 19.3 | 0.00 | 0.00 | 0.00 | 18 | 1024.9 |
| 20260507173503 | 27 | 45 | 9.7 | 19.3 | 0.00 | 0.00 | 0.00 | 19 | 1025.0 |
| 20260507173002 | 27 | 22 | 14.5 | 19.3 | 0.00 | 0.00 | 0.00 | 19 | 1025.0 |
| 20260507172503 | 27 | 40 | 3.2 | 16.1 | 0.00 | 0.00 | 0.00 | 19 | 1024.9 |
| 20260507172003 | 27 | 43 | 6.4 | 19.3 | 0.00 | 0.00 | 0.00 | 19 | 1024.7 |
| 20260507171504 | 27 | 323 | 6.4 | 19.3 | 0.00 | 0.00 | 0.00 | 18 | 1024.8 |
| 20260507171003 | 27 | 338 | 9.7 | 14.5 | 0.00 | 0.00 | 0.00 | 19 | 1024.8 |
| 20260507170502 | 27 | 336 | 6.4 | 19.3 | 0.00 | 0.00 | 0.00 | 19 | 1024.7 |
| 20260507164503 | 27 | 335 | 9.7 | 14.5 | 0.00 | 0.00 | 0.00 | 19 | 1024.8 |
| 20260507164003 | 27 | 5 | 8.0 | 16.1 | 0.00 | 0.00 | 0.00 | 19 | 1024.9 |
| 20260507163504 | 27 | 18 | 4.8 | 19.3 | 0.00 | 0.00 | 0.00 | 19 | 1024.9 |
| 20260507163003 | 26 | 331 | 9.7 | 19.3 | 0.00 | 0.00 | 0.00 | 19 | 1024.9 |
| 20260507162503 | 27 | 343 | 4.8 | 16.1 | 0.00 | 0.00 | 0.00 | 19 | 1024.8 |
| 20260507162003 | 27 | 342 | 8.0 | 24.1 | 0.00 | 0.00 | 0.00 | 19 | 1024.7 |
| 20260507161503 | 26 | 344 | 11.3 | 19.3 | 0.00 | 0.00 | 0.00 | 19 | 1024.8 |
| 20260507161003 | 26 | 19 | 14.5 | 19.3 | 0.00 | 0.00 | 0.00 | 19 | 1024.8 |
| 20260507160503 | 26 | 9 | 9.7 | 19.3 | 0.00 | 0.00 | 0.00 | 20 | 1024.8 |
| 20260507160003 | 26 | 9 | 14.5 | 20.9 | 0.00 | 0.00 | 0.00 | 20 | 1024.8 |
| 20260507155503 | 26 | 320 | 9.7 | 16.1 | 0.00 | 0.00 | 0.00 | 20 | 1024.8 |
| 20260507155003 | 26 | 349 | 9.7 | 19.3 | 0.00 | 0.00 | 0.00 | 20 | 1024.7 |
| 20260507154004 | 25 | 24 | 4.8 | 14.5 | 0.00 | 0.00 | 0.00 | 23 | 1024.6 |
| 20260507153504 | 24 | 25 | 4.8 | 9.7 | 0.00 | 0.00 | 0.00 | 25 | 1024.7 |
| 20260507153003 | 23 | 10 | 4.8 | 8.0 | 0.00 | 0.00 | 0.00 | 26 | 1024.8 |
| 20260507152503 | 23 | 16 | 3.2 | 8.0 | 0.00 | 0.00 | 0.00 | 26 | 1024.9 |
| 20260507152003 | 23 | 38 | 3.2 | 8.0 | 0.00 | 0.00 | 0.00 | 27 | 1024.9 |
| 20260507151503 | 22 | 20 | 3.2 | 9.7 | 0.00 | 0.00 | 0.00 | 27 | 1024.8 |
| 20260507151003 | 22 | 22 | 3.2 | 4.8 | 0.00 | 0.00 | 0.00 | 27 | 1024.9 |
| 20260507150503 | 22 | 19 | 1.6 | 4.8 | 0.00 | 0.00 | 0.00 | 28 | 1024.9 |
| 20260507150003 | 21 | 38 | 1.6 | 4.8 | 0.00 | 0.00 | 0.00 | 28 | 1024.9 |
| 20260507145504 | 21 | 30 | 1.6 | 4.8 | 0.00 | 0.00 | 0.00 | 28 | 1024.9 |
| 20260507145003 | 21 | 17 | 1.6 | 4.8 | 0.00 | 0.00 | 0.00 | 28 | 1025.0 |
| 20260507144503 | 21 | 28 | 0.0 | 3.2 | 0.00 | 0.00 | 0.00 | 27 | 1025.0 |
| 20260507144003 | 22 | 36 | 1.6 | 4.8 | 0.00 | 0.00 | 0.00 | 27 | 1025.0 |
| 20260507143503 | 22 | 42 | 3.2 | 4.8 | 0.00 | 0.00 | 0.00 | 26 | 1025.0 |
| 20260507143003 | 22 | 3 | 1.6 | 4.8 | 0.00 | 0.00 | 0.00 | 26 | 1025.0 |
| 20260507142504 | 22 | 249 | 0.0 | 0.0 | 0.00 | 0.00 | 0.00 | 26 | 1024.6 |
| 20260507142003 | 22 | 248 | 0.0 | 1.6 | 0.00 | 0.00 | 0.00 | 26 | 1024.6 |
| 20260507141502 | 21 | 248 | 0.0 | 0.0 | 0.00 | 0.00 | 0.00 | 27 | 1024.6 |
| 20260507140502 | 20 | 248 | 1.6 | 3.2 | 0.00 | 0.00 | 0.00 | 29 | 1024.5 |
| 20260507140004 | 19 | 243 | 0.0 | 1.6 | 0.00 | 0.00 | 0.00 | 29 | 1024.5 |
| 20260507135503 | 18 | 242 | 0.0 | 3.2 | 0.00 | 0.00 | 0.00 | 30 | 1024.5 |
| 20260507135003 | 18 | 243 | 1.6 | 3.2 | 0.00 | 0.00 | 0.00 | 31 | 1024.5 |
| 20260507134504 | 17 | 242 | 0.0 | 0.0 | 0.00 | 0.00 | 0.00 | 32 | 1024.5 |
| 20260507134002 | 17 | 244 | 0.0 | 0.0 | 0.00 | 0.00 | 0.00 | 33 | 1024.5 |
| 20260507133503 | 16 | 252 | 0.0 | 0.0 | 0.00 | 0.00 | 0.00 | 36 | 1024.5 |
| 20260507133004 | 15 | 251 | 0.0 | 0.0 | 0.00 | 0.00 | 0.00 | 36 | 1024.4 |
| 20260507132503 | 15 | 251 | 0.0 | 0.0 | 0.00 | 0.00 | 0.00 | 36 | 1024.2 |
| 20260507131002 | 15 | 251 | 0.0 | 0.0 | 0.00 | 0.00 | 0.00 | 35 | 1024.2 |
| 20260507130503 | 15 | 251 | 0.0 | 0.0 | 0.00 | 0.00 | 0.00 | 35 | 1024.0 |
| 20260507130004 | 15 | 251 | 0.0 | 0.0 | 0.00 | 0.00 | 0.00 | 35 | 1023.9 |
| 20260507125503 | 15 | 251 | 0.0 | 0.0 | 0.00 | 0.00 | 0.00 | 34 | 1024.0 |
| 20260507125004 | 15 | 251 | 0.0 | 0.0 | 0.00 | 0.00 | 0.00 | 34 | 1024.0 |
| 20260507124503 | 16 | 251 | 0.0 | 0.0 | 0.00 | 0.00 | 0.00 | 34 | 1024.0 |
| 20260507124003 | 16 | 250 | 0.0 | 0.0 | 0.00 | 0.00 | 0.00 | 35 | 1024.0 |
| 20260507123503 | 15 | 250 | 0.0 | 0.0 | 0.00 | 0.00 | 0.00 | 35 | 1024.0 |
| 20260507123004 | 15 | 250 | 0.0 | 0.0 | 0.00 | 0.00 | 0.00 | 35 | 1023.9 |
| 20260507122503 | 15 | 252 | 0.0 | 0.0 | 0.00 | 0.00 | 0.00 | 35 | 1023.9 |
| 20260507122003 | 16 | 253 | 0.0 | 0.0 | 0.00 | 0.00 | 0.00 | 34 | 1024.0 |
| 20260507121503 | 16 | 257 | 0.0 | 0.0 | 0.00 | 0.00 | 0.00 | 35 | 1024.0 |
| 20260507121003 | 16 | 257 | 0.0 | 0.0 | 0.00 | 0.00 | 0.00 | 34 | 1024.0 |
| 20260507120503 | 16 | 257 | 0.0 | 0.0 | 0.00 | 0.00 | 0.00 | 34 | 1024.1 |
| 20260507120002 | 16 | 257 | 0.0 | 0.0 | 0.00 | 0.00 | 0.00 | 34 | 1024.1 |
| 20260507115503 | 16 | 257 | 0.0 | 0.0 | 0.00 | 0.00 | 0.00 | 36 | 1024.1 |
| 20260507115004 | 15 | 225 | 0.0 | 0.0 | 0.00 | 0.00 | 0.00 | 35 | 1024.1 |
| 20260507114003 | 15 | 224 | 0.0 | 0.0 | 0.00 | 0.00 | 0.00 | 35 | 1024.1 |
| 20260507113004 | 16 | 224 | 0.0 | 0.0 | 0.00 | 0.00 | 0.00 | 34 | 1024.3 |
| 20260507112503 | 16 | 224 | 0.0 | 0.0 | 0.00 | 0.00 | 0.00 | 34 | 1024.0 |
| 20260507112003 | 16 | 224 | 0.0 | 0.0 | 0.00 | 0.00 | 0.00 | 34 | 1024.0 |
| 20260507111503 | 16 | 224 | 0.0 | 0.0 | 0.00 | 0.00 | 0.00 | 35 | 1024.0 |
| 20260507110503 | 15 | 224 | 0.0 | 0.0 | 0.00 | 0.00 | 0.00 | 34 | 1024.0 |
| 20260507110003 | 15 | 224 | 0.0 | 0.0 | 0.00 | 0.00 | 0.00 | 35 | 1023.9 |
| 20260507105502 | 15 | 224 | 0.0 | 0.0 | 0.00 | 0.00 | 0.00 | 35 | 1023.9 |
| 20260507105003 | 15 | 224 | 0.0 | 0.0 | 0.00 | 0.00 | 0.00 | 35 | 1024.0 |
| 20260507104003 | 15 | 246 | 0.0 | 0.0 | 0.00 | 0.00 | 0.00 | 35 | 1024.0 |
| 20260507103503 | 15 | 246 | 0.0 | 0.0 | 0.00 | 0.00 | 0.00 | 35 | 1024.1 |
| 20260507103003 | 15 | 267 | 0.0 | 0.0 | 0.00 | 0.00 | 0.00 | 34 | 1024.0 |
| 20260507102503 | 15 | 268 | 0.0 | 0.0 | 0.00 | 0.00 | 0.00 | 34 | 1024.0 |
| 20260507102003 | 15 | 278 | 0.0 | 0.0 | 0.00 | 0.00 | 0.00 | 34 | 1023.9 |
| 20260507101503 | 15 | 281 | 0.0 | 0.0 | 0.00 | 0.00 | 0.00 | 34 | 1024.0 |
| 20260507101003 | 15 | 284 | 0.0 | 0.0 | 0.00 | 0.00 | 0.00 | 35 | 1024.0 |
| 20260507100503 | 15 | 288 | 0.0 | 0.0 | 0.00 | 0.00 | 0.00 | 36 | 1024.0 |
| 20260507100005 | 14 | 290 | 0.0 | 0.0 | 0.00 | 0.00 | 0.00 | 36 | 1024.1 |
| 20260507095503 | 14 | 240 | 0.0 | 0.0 | 0.00 | 0.00 | 0.00 | 36 | 1024.1 |
| 20260507095004 | 14 | 240 | 0.0 | 0.0 | 0.00 | 0.00 | 0.00 | 35 | 1024.1 |
| 20260507094503 | 14 | 240 | 0.0 | 0.0 | 0.00 | 0.00 | 0.00 | 35 | 1024.3 |
| 20260507093503 | 15 | 240 | 0.0 | 0.0 | 0.00 | 0.00 | 0.00 | 35 | 1024.2 |